Sydney, Australia

5:30 AM AEDT on November 24, 2017 (GMT +1100)
Kingsford Smith International

Weather History for YSSY - August, 2013

Change the Weather History Date:

Wednesday, August 21, 2013

  Actual Average Record
Temperature  
Mean Temperature 53 °F -  
Max Temperature 62 °F 68 °F 73 °F (2004)
Min Temperature 44 °F 49 °F 41 °F (1996)
Degree Days  
Heating Degree Days 12    
Growing Degree Days 3 (Base 50)    
Moisture  
Dew Point 31 °F    
Average Humidity 40    
Maximum Humidity 61    
Minimum Humidity 18    
Precipitation  
Precipitation 0.00 in 0.09 in - ()
Sea Level Pressure  
Sea Level Pressure 29.97 in    
Wind  
Wind Speed 14 mph ()    
Max Wind Speed 21 mph    
Max Gust Speed 32 mph    
Visibility 9.0 miles    
Events      
Averages and records for this station are not official NWS values.
T = Trace of Precipitation, MM = Missing Value Source: Averaged Metar Reports

Daily Weather History Graph

Daily Weather History Graph

Search for Another Location

Airport or City:

Trip Planner

Search our weather history database for the weather conditions in past years. The results will help you decide how hot, cold, wet, or windy it might be!

Date:

Astronomy

Aug. 21, 2013 Rise Set
Actual Time 6:27 AM AEST 5:29 PM AEST
Civil Twilight 6:02 AM AEST 5:55 PM AEST
Nautical Twilight 5:33 AM AEST 6:24 PM AEST
Astronomical Twilight 5:04 AM AEST 6:53 PM AEST
Moon 5:47 PM AEST (8/21) 6:01 AM AEST (8/21)
Length of Visible Light 11h 52m
Length of Day
11h 01m
Full, 100% of the Moon is Illuminated
Aug 21
Full
Aug 28
Last Quarter
Sep 5
New
Sep 13
First Quarter
Sep 19
Full

Hourly Weather History & Observations

Time (AEST) Temp. Windchill Dew Point Humidity Pressure Visibility Wind Dir Wind Speed Gust Speed Precip Events Conditions
12:00 AM 47 °F - 29 °F 36% 29.99 in 25 mi West 17.3 mph - -   Partly Cloudy
12:00 AM 46.4 °F 39.5 °F 28.4 °F 50% 29.98 in - West 17.3 mph - N/A   Clear
12:30 AM 46.4 °F 39.2 °F 28.4 °F 50% 29.98 in - West 18.4 mph - N/A   Clear
1:00 AM 46 °F - 29 °F 40% 29.98 in - West 17.3 mph - -  
1:00 AM 46.4 °F 39.5 °F 30.2 °F 53% 29.98 in - West 17.3 mph - N/A   Clear
2:00 AM 45 °F - 30 °F 43% 29.97 in - West 15.0 mph - -  
2:00 AM 44.6 °F 37.8 °F 30.2 °F 57% 29.95 in - West 15.0 mph - N/A   Clear
2:30 AM 46.4 °F 39.2 °F 30.2 °F 53% 29.95 in - WSW 18.4 mph - N/A   Clear
3:00 AM 45 °F - 31 °F 45% 29.96 in 25 mi West 16.1 mph - -   Partly Cloudy
3:00 AM 44.6 °F 37.4 °F 30.2 °F 57% 29.95 in - West 16.1 mph - N/A   Clear
4:00 AM 46 °F - 30 °F 42% 29.96 in - West 16.1 mph - -  
4:00 AM 46.4 °F 39.8 °F 30.2 °F 53% 29.95 in - West 16.1 mph - N/A   Clear
4:30 AM 44.6 °F 37.4 °F 30.2 °F 57% 29.95 in - West 16.1 mph - N/A   Clear
5:00 AM 45 °F - 31 °F 46% 29.97 in - West 16.1 mph - -  
5:00 AM 44.6 °F 37.4 °F 30.2 °F 57% 29.95 in - West 16.1 mph - N/A   Clear
5:30 AM 44.6 °F 38.8 °F 32.0 °F 61% 29.95 in - West 11.5 mph - N/A   Clear
6:00 AM 45 °F - 32 °F 49% 29.98 in 19 mi West 12.7 mph - -   Partly Cloudy
6:00 AM 44.6 °F 38.4 °F 32.0 °F 61% 29.98 in 6.2 mi West 12.7 mph - N/A   Partly Cloudy
6:30 AM 46.4 °F 40.7 °F 32.0 °F 57% 29.98 in 6.2 mi West 12.7 mph - N/A   Partly Cloudy
7:00 AM 46 °F - 32 °F 46% 30.00 in - WNW 11.5 mph - -  
7:00 AM 46.4 °F 41.1 °F 32.0 °F 57% 29.98 in 6.2 mi WNW 11.5 mph - N/A   Partly Cloudy
7:30 AM 48.2 °F - 32.0 °F 54% 30.01 in 6.2 mi West 13.8 mph - N/A   Partly Cloudy
8:00 AM 50.0 °F - 33.8 °F 54% 30.01 in 6.2 mi West 13.8 mph - N/A   Partly Cloudy
8:30 AM 53.6 °F - 32.0 °F 44% 30.01 in 6.2 mi West 10.4 mph - N/A   Partly Cloudy
9:00 AM 54 °F - 33 °F 33% 30.01 in 19 mi West 12.7 mph - -   Partly Cloudy
9:00 AM 53.6 °F - 33.8 °F 47% 30.01 in 6.2 mi West 12.7 mph - N/A   Partly Cloudy
9:30 AM 55.4 °F - 32.0 °F 41% 30.01 in 6.2 mi West 19.6 mph - N/A   Partly Cloudy
10:00 AM 57 °F - 33 °F 27% 30.00 in - West 19.6 mph - -  
10:00 AM 57.2 °F - 32.0 °F 38% 29.98 in 6.2 mi West 19.6 mph - N/A   Partly Cloudy
10:30 AM 57.2 °F - 32.0 °F 38% 29.98 in 6.2 mi West 20.7 mph - N/A   Partly Cloudy
11:00 AM 59 °F - 31 °F 23% 30.00 in - West 17.3 mph - -  
11:00 AM 59.0 °F - 32.0 °F 36% 29.98 in - West 17.3 mph - N/A   Clear
11:30 AM 60.8 °F - 30.2 °F 31% 29.98 in - West 18.4 mph - N/A   Clear
12:00 PM 61 °F - 29 °F 19% 29.97 in 19 mi West 17.3 mph - -   Partly Cloudy
12:00 PM 60.8 °F - 30.2 °F 31% 29.95 in - West 17.3 mph - N/A   Clear
12:30 PM 60.8 °F - 32.0 °F 34% 29.95 in - WSW 15.0 mph - N/A   Clear
1:00 PM 61 °F - 29 °F 18% 29.95 in - West 12.7 mph - -  
1:00 PM 60.8 °F - 28.4 °F 29% 29.95 in - West 12.7 mph - N/A   Clear
1:30 PM 62.6 °F - 30.2 °F 30% 29.92 in - West 13.8 mph - N/A   Clear
2:00 PM 61 °F - 29 °F 18% 29.94 in - SW 16.1 mph - -  
2:00 PM 60.8 °F - 28.4 °F 29% 29.92 in - SW 16.1 mph - N/A   Clear
2:30 PM 59.0 °F - 30.2 °F 34% 29.92 in - WSW 16.1 mph - N/A   Clear
3:00 PM 60 °F - 28 °F 19% 29.93 in 19 mi WSW 15.0 mph - -   Partly Cloudy
3:00 PM 60.8 °F - 28.4 °F 29% 29.92 in - WSW 15.0 mph 32.2 mph N/A   Clear
3:30 PM 59.0 °F - 30.2 °F 34% 29.92 in - WSW 13.8 mph - N/A   Clear
4:00 PM 59 °F - 31 °F 22% 29.93 in - WSW 13.8 mph - -  
4:00 PM 59.0 °F - 30.2 °F 34% 29.92 in - WSW 13.8 mph - N/A   Clear
4:30 PM 60.8 °F - 26.6 °F 27% 29.92 in - SW 12.7 mph - N/A   Clear
5:00 PM 58 °F - 30 °F 22% 29.94 in - WSW 12.7 mph - -  
5:00 PM 59.0 °F - 30.2 °F 34% 29.92 in - WSW 12.7 mph - N/A   Clear
5:30 PM 57.2 °F - 30.2 °F 36% 29.95 in - WSW 10.4 mph - N/A   Clear
6:00 PM 57.2 °F - 30.2 °F 36% 29.95 in - WSW 9.2 mph - N/A   Clear
6:30 PM 55.4 °F - 30.2 °F 38% 29.95 in - West 15.0 mph - N/A   Clear
7:00 PM 55 °F - 30 °F 26% 29.96 in - West 16.1 mph - -  
7:00 PM 55.4 °F - 30.2 °F 38% 29.95 in - West 16.1 mph - N/A   Clear
7:30 PM 53.6 °F - 30.2 °F 41% 29.95 in - WSW 17.3 mph - N/A   Clear
8:00 PM 53 °F - 32 °F 33% 29.98 in - West 12.7 mph - -  
8:00 PM 53.6 °F - 32.0 °F 44% 29.98 in - West 12.7 mph - N/A   Clear
8:30 PM 51.8 °F - 33.8 °F 50% 29.98 in 6.2 mi West 9.2 mph - N/A   Partly Cloudy
9:00 PM 52 °F - 33 °F 36% 29.99 in 25 mi West 10.4 mph - -   Partly Cloudy
9:00 PM 51.8 °F - 33.8 °F 50% 29.98 in 6.2 mi West 10.4 mph - N/A   Partly Cloudy
9:30 PM 51.8 °F - 33.8 °F 50% 29.98 in 6.2 mi West 8.1 mph - N/A   Partly Cloudy
10:00 PM 52 °F - 33 °F 35% 29.99 in - WNW 8.1 mph - -  
10:00 PM 51.8 °F - 32.0 °F 47% 29.98 in 6.2 mi WNW 8.1 mph - N/A   Partly Cloudy
10:30 PM 53.6 °F - 33.8 °F 47% 29.98 in - NW 9.2 mph - N/A   Clear
11:00 PM 52 °F - 33 °F 37% 30.00 in - NW 8.1 mph - -  
11:00 PM 51.8 °F - 33.8 °F 50% 29.98 in - NW 8.1 mph - N/A   Clear
11:30 PM 51.8 °F - 33.8 °F 50% 29.98 in - NW 10.4 mph - N/A   Clear